Terug naar catalogus

FENGYUN 1C DEB

ActiefPO
NORAD 30350·DEBRIS·🇨🇳 China

Gelanceerd May 10, 1999 vanaf Taiyuan Satellite Launch Center

Loading…

Volgende Passages (komende 24 uur)

TLE

VersSource: Space-Track

Epoch: Sep 14, 2026, 08:48 UTC

1 30350U 99025ABM 26257.36677464  .00000691  00000-0  55248-3 0  9994
2 30350  98.1239  42.9614 0217400 268.3521 118.3184 13.83310323987920

Volg FENGYUN 1C DEB in realtime met AllMySat

Download on the App Store